Weather in Radul

Ukraine / Chernihiv Region     51°49′45″N   30°42′46″E
temp.,
°C
wind,
m/s
gust,
m/s
humid.,
%
clouds,
%
prec.,
mm/h
press.,
hPa
HPBL,
m
6 march, sat
sat623:00−4nnw3886100 0.0 1020246
02:00−6nnw358789 0.0 1021110
05:00−7nw33830 0.0 102164
08:00−6wnw25760 0.0 1023162
11:00−2wnw586786 0.0 10231181
14:00−1nw477297 0.4 10221079
17:00−2nnw247674 0.3 1022114
20:00−4wnw497946 0.3 1023216
7 march, sun
sun723:00−5wsw38820 0.0 1023195
02:00−5sw512780 0.0 1020349
05:00−3sw7157577 0.0 1016614
08:00−1wsw9167488 0.0 10131046
11:00+1w101779100 0.0 10101285
14:00+2w101682100 0.1 10091400
17:00+1w81676100 0.1 10081205
20:000w71681100 0.2 10081174
8 march, mon
mon823:000wnw7129399 0.9 1008996
02:00−2wnw61274100 1.0 1008879
05:00−4wnw5118159 0.0 1008737
08:00−4wnw698256 0.1 1011910
11:00−2nw71164100 0.3 10121674
14:00−1nw695496 0.3 10131579
17:00−2wnw37670 0.0 1013498
20:00−4wnw38760 0.0 1015255
9 march, tue
tue923:00−5wnw36816 0.0 1017169
02:00−6nnw368735 0.0 1018212
05:00−7n478698 0.0 1019595
08:00−7n577991 0.1 1022796
11:00−5nnw466798 0.0 1024882
14:00−4nnw355452 0.0 1024881
17:00−4nw24590 0.0 1024304
20:00−5w236626 0.0 102683
10 march, wed
wed1023:00−5wsw2367100 0.0 102656
02:00−6sw366893 0.0 1025129
05:00−6sw37677 0.0 1024158
08:00−5sw49644 0.0 1024324
11:00−1wsw57527 0.0 10221022
14:00+1wsw575039 0.0 10201452
17:00−1wsw345735 0.0 1018108
20:00−2ssw486718 0.0 1018176